Retour au catalogue

STARLINK-33880

ActifCommunicationsVLEO
NORAD 63686·PAYLOAD·🇺🇸 United States

Lancé Apr 28, 2025 depuis Cape Canaveral Space Force Station

Loading…

Prochains Passages (prochaines 24 heures)

TLE

FraisSource: CelesTrak SupGP

Époque: Sep 14, 2026, 20:57 UTC

1 63686C 25085Y   26257.87340278  .00059123  00000+0  21417-2 0  2573
2 63686  43.0011  42.7051 0001526 273.9614 344.3640 15.27544980    15

Suivez STARLINK-33880 en temps réel avec AllMySat

Download on the App Store